EW6920 Weather Reports


Display with metric or nautical units.
time (UTC)temp
F
wind
direction
speed
MPH
gust
MPH
rain 1hr
in
rain 24hr
in
rain mn
in
humidity
%
barometer
mb
20260505200046 39 267 13.0 20.0 0.00 0.00 0.00 59 1006.8
20260505194545 40 274 13.0 21.0 0.00 0.00 0.00 58 1006.6
20260505193049 40 268 11.0 19.0 0.00 0.00 0.00 55 1006.6
20260505191551 40 265 13.0 22.0 0.00 0.00 0.00 59 1006.6
20260505190104 40 311 11.0 20.0 0.00 0.00 0.00 58 1006.6
20260505184559 40 257 13.0 20.0 0.00 0.00 0.00 61 1006.3
20260505183051 39 327 14.0 22.0 0.00 0.00 0.00 61 1006.2
20260505181545 40 284 10.0 21.0 0.00 0.00 0.00 56 1006.0
20260505180046 39 287 10.0 17.0 0.00 0.00 0.00 65 1006.0
20260505174548 39 317 11.0 21.0 0.00 0.00 0.00 61 1006.1
20260505173046 38 279 14.0 20.0 0.00 0.00 0.00 66 1005.9
20260505171545 38 292 9.0 19.0 0.00 0.00 0.00 64 1005.7
20260505170046 38 306 12.0 23.0 0.00 0.00 0.00 59 1005.6
20260505164546 38 298 11.0 20.0 0.00 0.00 0.00 63 1005.5
20260505163046 38 317 12.0 18.0 0.00 0.00 0.00 58 1005.3
20260505161545 39 283 11.0 20.0 0.00 0.00 0.00 60 1005.0
20260505153059 40 332 8.0 16.0 0.00 0.00 0.00 62 1004.6
20260505151545 39 280 7.0 19.0 0.00 0.00 0.00 60 1004.5
20260505124545 35 311 4.0 10.0 0.00 0.00 0.00 74 1003.0
20260505123105 34 328 4.0 10.0 0.00 0.00 0.00 75 1002.9
20260505121549 34 293 4.0 12.0 0.00 0.00 0.00 75 1003.0
20260505120052 34 319 5.0 12.0 0.00 0.00 0.00 76 1003.0
20260505114553 34 267 5.0 12.0 0.00 0.00 0.00 76 1002.7
20260505113050 34 313 8.0 16.0 0.00 0.00 0.00 75 1002.6
20260505111551 34 315 6.0 14.0 0.00 0.00 0.00 73 1002.2
20260505101548 36 329 8.0 14.0 0.00 0.00 0.00 71 1001.6
20260505100047 36 315 9.0 14.0 0.00 0.00 0.00 74 1001.3
20260505094548 36 278 8.0 16.0 0.00 0.00 0.00 72 1001.4
20260505093048 36 296 8.0 17.0 0.00 0.00 0.00 71 1001.1
20260505091549 37 296 10.0 13.0 0.00 0.00 0.00 73 1001.1
20260505090053 36 315 5.0 11.0 0.00 0.00 0.00 73 1000.9
20260505084544 37 324 3.0 9.0 0.00 0.00 0.00 73 1000.7
20260505083106 37 315 4.0 8.0 0.00 0.00 0.00 74 1000.8
20260505081549 37 302 2.0 8.0 0.00 0.00 0.00 72 1000.7
20260505080053 37 309 6.0 10.0 0.00 0.00 0.00 73 1000.8
20260505074545 37 344 4.0 10.0 0.00 0.00 0.00 72 1000.8
20260505073055 37 326 4.0 13.0 0.00 0.00 0.00 71 1000.9
20260505071540 37 337 5.0 15.0 0.00 0.00 0.00 70 1000.9
20260505070054 37 314 4.0 10.0 0.00 0.00 0.00 70 1000.9
20260505064547 37 337 6.0 12.0 0.00 0.00 0.00 69 1001.0
20260505063045 38 299 4.0 10.0 0.00 0.00 0.00 65 1001.0
20260505061542 38 314 7.0 15.0 0.00 0.00 0.00 64 1000.9
20260505060050 38 319 8.0 21.0 0.00 0.00 0.00 62 1000.7
20260505054548 38 299 11.0 22.0 0.00 0.00 0.00 66 1000.8
20260505053047 39 308 10.0 15.0 0.00 0.00 0.00 63 1000.4
20260505051542 39 335 9.0 18.0 0.00 0.00 0.00 63 1000.5
20260505050119 39 315 10.0 18.0 0.00 0.00 0.00 62 1000.3
20260505041553 40 304 8.0 18.0 0.00 0.00 0.00 61 1000.3
20260505040054 40 302 8.0 19.0 0.00 0.00 0.00 59 1000.3
20260505034545 41 289 9.0 17.0 0.00 0.00 0.00 57 1000.3
20260505033048 41 325 8.0 20.0 0.00 0.00 0.00 59 1000.1
20260505031547 41 326 13.0 24.0 0.00 0.00 0.00 57 1000.1
20260505030045 42 340 14.0 26.0 0.00 0.00 0.00 58 1000.0
20260505024549 42 302 14.0 27.0 0.00 0.00 0.00 59 999.7
20260505023051 42 294 12.0 23.0 0.00 0.00 0.00 63 999.7
20260505021547 43 322 11.0 18.0 0.00 0.00 0.00 61 999.6
20260505020044 43 309 10.0 21.0 0.00 0.00 0.00 61 999.4
20260505014602 43 301 9.0 25.0 0.00 0.00 0.00 59 999.2
20260505013050 44 315 16.0 27.0 0.00 0.00 0.00 61 998.9
20260505011547 45 282 9.0 21.0 0.00 0.00 0.00 58 998.6
20260505010046 45 297 14.0 23.0 0.00 0.00 0.00 60 998.3
20260505004546 46 294 11.0 19.0 0.00 0.00 0.00 54 998.0
20260505003047 47 332 9.0 22.0 0.00 0.00 0.00 53 997.7
20260505001601 47 306 10.0 20.0 0.00 0.00 0.00 51 997.5
20260505000104 48 309 13.0 25.0 0.00 0.00 0.00 53 997.4
20260504234604 48 317 15.0 24.0 0.00 0.00 0.00 54 997.3
20260504233050 48 319 14.0 25.0 0.00 0.00 0.00 51 997.1
20260504231542 49 309 12.0 22.0 0.00 0.00 0.00 50 996.9
20260504230049 50 310 14.0 26.0 0.00 0.00 0.00 48 996.7
20260504224603 51 321 13.0 27.0 0.00 0.00 0.00 49 996.4
20260504223047 52 290 11.0 24.0 0.00 0.00 0.00 48 996.1
20260504221545 53 309 14.0 27.0 0.00 0.00 0.00 46 995.8
20260504220044 54 329 16.0 27.0 0.00 0.00 0.00 49 995.5
20260504214547 56 289 16.0 28.0 0.00 0.00 0.00 47 995.1
20260504213055 56 304 10.0 24.0 0.00 0.00 0.00 42 994.6
20260504211546 56 291 14.0 22.0 0.00 0.00 0.00 46 994.5
20260504210049 57 300 9.0 25.0 0.00 0.00 0.00 41 994.3
20260504204545 58 314 15.0 27.0 0.00 0.00 0.00 46 994.0
20260504203049 58 280 15.0 23.0 0.00 0.00 0.00 46 993.9
20260504201546 57 271 14.0 23.0 0.00 0.00 0.00 44 993.7